Location: Exeidioux
(45.6312°N, 1.6819°E)
Time: 17:01:46
(UTC+00:00)

DMSP B5D1-3 - Pass Details

Date: 03 March 2021
Orbit: 767 x 780 km, 98.5° (Epoch: 11 April)

Event Time Altitude Azimuth Distance (km) Brightness Sun altitude
Rises 18:47:22 0° 14° (NNE) 3,272 7.7 -12.0°
Reaches altitude 10° 18:49:42 10° 15° (NNE) 2,341 6.9 -12.4°
Maximum altitude 18:54:53 84° 104° (ESE) 791 4.5 -13.3°
Drops below altitude 10° 19:00:02 10° 193° (SSW) 2,327 7.1 -14.2°
Sets 19:02:20 0° 194° (SSW) 3,250 7.9 -14.6°
